User: anonymous   Login
Location: Unspecified
(0.0000°N, 0.0000°E)
Time: 18:05:25
(UTC+00:00)
Language:

TBA - TO BE ASSIGNED - Orbit

View from above orbital plane
View from above orbital plane
View from above satellite
View from above satellite

Ground track
Ground track

The orbit is defined by the following mean orbital elements,

1 68186U          26145.36915376 +.00000000 +00000-0 +77853-3 0 00003
2 68186  53.1564 269.8473 0002053  80.9633 279.1602 15.35439280    00
Epoch (UTC): 25 May 2026 08:51:34
Eccentricity: 0.0002053
inclination: 53.1564°
perigee height: 458 km
apogee height: 461 km
right ascension of ascending node: 269.8473°
argument of perigee: 80.9633°
revolutions per day: 15.35439280
mean anomaly at epoch: 279.1602°

The dashed part of the orbit path shows where the satellite is in the earth's shadow,  

DLR